星链-35643(STARLINK-35643)

导读

STARLINK-35643是美国SpaceX公司星链(Starlink)星座的卫星,于2025年11月15日发射入轨。星链项目旨在依托低轨卫星星座,为全球偏远、欠发达地区及移动场景提供高速宽带互联网服务。 该卫星纳入星链大规模低轨组网体系,延续星座技术架构,支撑服务向航空、航海、手机直连多场景拓展,助力星链完成全球覆盖布局,进一步巩固SpaceX在卫星互联网领域的领先地位。

Basic Information
目录编号:
66456
目录名称:
STARLINK-35643
国际标识:
2025-262A
轨道中心:
EARTH
卫星名称:
星链-35643
卫星全名:
星链-35643(STARLINK-35643)
卫星状态:
在轨 (已飞行210 天)
发射日期:
2025-11-15 UTC
国别 :
美国 (US)
星等 :
--
Orbit Information
数据来源 国际轨道数据 AOE轨道数据
星历时间 2026-06-12T12:18:04+0800
1天前
查看轨道信息
2026-06-12T00:00:00+0800
1天前
查看轨道信息
半长轴 6861.156km 6861.198km
偏心率 0.000077 0.000159
轨道倾角 43.000° 43.002°
近地点辐角 248.494° 243.274°
升交点赤经 122.869° 125.764°
平近点角 111.583° 174.821°
近地点 482.49km 481.97km
远地点 483.548km 484.152km
周期 94.266分钟 94.267分钟
每日圈数 15.275902 15.275761
Detailed Information
固有亮度:
5
最大亮度:
2.5
卫星平台:
Starlink V1.0
覆盖范围:
全球
运营商:
太空探索技术公司
运营商所在国:
美国
制造商(研发单位):
太空探索技术公司
制造商所在国:
美国
使用方式:
暂无
Satellite Introduction
Starlink 计划是 SpaceX 推出的全球卫星互联网项目,通过发射低轨道卫星,为全球尤其是偏远地区提供高速、低延迟的互联网服务。自 2019 年起,Starlink 已部署数千颗卫星,旨在缩小全球数字鸿沟,推动互联网普及。该项目还为军事、航空等行业提供通信支持,带来广泛经济效益。
2D Orbit Map
3D Orbit Map
Orbit Altitude Analysis Chart
Orbit Inclination Analysis Chart
Orbit Comprehensive Analysis Chart
View Comprehensive Chart